{"data":{"norad_id":62665,"epoch":"2026-09-22T20:09:08.804736Z","epoch_age_seconds":118435,"freshness":"FRESH","line1":"1 62665U 25009BJ  26265.83968524  .00002419  00000+0  10614-3 0  9997","line2":"2 62665  97.3824 342.6723 0004208  10.6835 349.4491 15.22899805 93593","mean_motion":15.22899805,"eccentricity":0.0004208,"inclination_deg":97.3824,"raan_deg":342.6723,"arg_perigee_deg":10.6835,"mean_anomaly_deg":349.4491,"bstar":0.00010614,"rev_number":9359,"period_min":94.556450481652,"perigee_km":494.20606242358,"apogee_km":499.99226117735,"semimajor_km":6875.2361618005,"source":"CELESTRAK","updated_at":"2026-09-23T09:00:21.543788Z"}}